Location: Unspecified
(0.0000°N, 0.0000°E)
Time: 20:03:32
(UTC+00:00)

Vanguard 2 Rocket - Visible Passes

Search period start: 30 January 2015 00:00
Search period end: 09 February 2015 00:00
Orbit: 553 x 3334 km, 32.9° (Epoch: 29 January)

Date Brightness Start Highest point End Pass type
(mag) Time Alt. Az. Time Alt. Az. Time Alt. Az.
30 Jan 6.0 04:46:01 49° NNW 04:46:57 67° NE 04:50:51 10° ESE visible
30 Jan 10.2 18:13:57 10° WSW 18:33:16 53° NNW 18:50:29 10° NE visible
30 Jan 10.2 20:40:01 10° WNW 20:53:36 21° NNW 20:59:23 17° N visible
31 Jan 8.4 03:51:02 18° E 03:51:02 18° E 03:52:19 10° E visible
31 Jan 10.3 19:35:12 10° W 19:52:00 30° NNW 20:04:14 12° NNE visible
31 Jan 10.7 22:08:54 10° NNW 22:10:08 11° NNW 22:10:08 11° NNW visible
01 Feb 6.5 05:01:57 30° W 05:03:21 41° SW 05:07:03 10° SE visible
01 Feb 10.4 18:31:59 10° W 18:50:12 39° NNW 19:06:13 10° NNE visible
01 Feb 10.4 21:01:14 10° NW 21:11:35 16° NNW 21:14:58 15° N visible
02 Feb 7.4 04:06:56 35° ESE 04:06:56 35° ESE 04:09:13 10° ESE visible
02 Feb 10.4 19:55:19 10° WNW 20:09:43 22° NNW 20:19:47 12° NNE visible
03 Feb 7.9 05:17:50 13° WSW 05:19:46 16° SW 05:22:11 10° S visible
03 Feb 10.5 18:51:00 10° W 19:07:38 29° NNW 19:21:58 10° NNE visible
03 Feb 10.5 21:22:22 10° NW 21:30:00 13° N 21:30:28 13° N visible
04 Feb 7.4 04:22:47 29° S 04:22:47 29° S 04:25:15 10° SSE visible
04 Feb 10.4 20:16:12 10° NW 20:27:58 17° NNW 20:35:14 13° NNE visible
05 Feb 10.5 19:11:01 10° WNW 19:25:39 22° NNW 19:37:59 10° NNE visible
05 Feb 10.6 21:41:34 10° NNW 21:45:52 13° NNW 21:45:52 13° NNW visible
06 Feb 8.2 04:38:34 14° SSW 04:38:34 14° SSW 04:40:12 10° S visible
06 Feb 10.6 18:07:18 10° WNW 18:23:13 29° NNW 18:38:18 10° NNE visible
06 Feb 10.4 20:36:42 10° NW 20:46:36 15° N 20:50:36 14° N visible
07 Feb 9.0 03:43:27 11° SSE 03:43:27 11° SSE 03:43:38 10° SSE visible
07 Feb 10.5 19:31:35 10° NW 19:44:08 18° NNW 19:54:43 10° NNE visible
07 Feb 10.6 21:58:28 10° NNW 22:01:12 13° NNW 22:01:12 13° NNW visible
08 Feb 10.6 18:27:12 10° WNW 18:41:28 22° NNW 18:54:34 10° NNE visible
08 Feb 10.4 20:55:26 10° NNW 21:05:20 16° N 21:05:55 16° N visible
